QPF
0.00 0.00 0.00 0.00 0.00 0.00 0.00 0.00 0.00 0.00 0.00 0.00 0.00 0.00 0.00 0.00 0.00 0.05 0.01 0.00 0.00 0.00 0.00 0.00 0.00 0.00 0.00 0.00 0.00 0.00 0.00 0.00 0.00 0.00 0.00 0.00 0.00 0.00 0.00 0.00 0.00 0.00 0.00 0.00 0.00 0.00 0.00 0.00 0.00
0.00 0.00 0.00 0.00 0.00 0.00 0.00 0.00 0.00 0.00 0.00 0.00 0.00 0.00 0.00 0.00 0.00 0.00 0.00 0.00 0.00 0.00 0.00 0.00 0.00 0.00 0.00 0.00 0.00 0.00 0.00 0.00 0.00 0.00 0.00 0.00 0.00 0.00 0.00 0.00 0.00 0.00 0.00 0.00 0.00 0.00 0.00 0.00 0.00
0.00 0.00 0.00 0.00 0.00 0.00 0.00 0.00 0.00 0.00 0.00 0.00 0.00 0.00 0.00 0.00 0.00 0.00 0.00 0.00 0.00 0.00 0.00 0.00 0.00 0.00 0.00 0.00 0.00 0.00 0.00 0.00 0.00 0.00 0.00 0.00 0.00 0.00 0.00 0.00 0.00 0.00 0.00 0.00 0.00 0.00 0.00 0.00 0.00
0.00 0.00 0.00 0.00 0.00 0.00 0.00 0.00 0.00 0.00 0.00 0.00 0.00 0.00 0.00 0.00 0.00 0.01 0.00 0.00 0.00 0.00 0.00 0.00 0.00 0.00 0.00 0.00 0.00 0.00 0.00 0.00 0.00 0.00 0.00 0.00 0.00 0.00 0.00 0.00 0.00 0.00 0.00 0.00 0.00 0.00 0.00 0.00 0.00
0.00 0.00 0.00 0.00 0.00 0.00 0.00 0.00 0.00 0.00 0.00 0.00 0.00 0.00 0.00 0.00 0.00 0.01 0.01 0.00 0.00 0.00 0.00 0.00 0.00 0.00 0.00 0.00 0.00 0.00 0.00 0.00 0.00 0.00 0.00 0.00 0.00 0.00 0.00 0.00 0.00 0.00 0.00 0.00 0.00 0.00 0.00 0.00 0.00
0.00 0.00 0.00 0.00 0.00 0.00 0.00 0.00 0.00 0.00 0.00 0.00 0.00 0.00 0.00 0.00 0.00 0.00 0.00 0.00 0.00 0.00 0.00 0.00 0.00 0.00 0.00 0.00 0.00 0.00 0.00 0.00 0.00 0.00 0.00 0.00 0.00 0.00 0.00 0.00 0.00 0.00 0.00 0.00 0.00 0.00 0.00 0.00 0.00
0.00 0.00 0.00 0.00 0.00 0.00 0.00 0.00 0.00 0.00 0.00 0.00 0.00 0.00 0.00 0.00 0.00 0.00 0.00 0.00 0.00 0.00 0.00 0.00 0.00 0.00 0.00 0.00 0.00 0.00 0.00 0.00 0.00 0.00 0.00 0.00 0.00 0.00 0.00 0.00 0.00 0.00 0.00 0.00 0.00 0.00 0.00 0.00 0.00
0.00 0.00 0.00 0.00 0.00 0.00 0.00 0.00 0.00 0.00 0.00 0.00 0.00 0.00 0.00 0.00 0.00 0.00 0.00 0.00 0.00 0.00 0.00 0.00 0.00 0.00 0.00 0.00 0.00 0.00 0.00 0.00 0.00 0.00 0.00 0.00 0.00 0.00 0.00 0.00 0.00 0.00 0.00 0.00 0.00 0.00 0.00 0.00 0.00
0.00 0.00 0.00 0.00 0.00 0.00 0.00 0.00 0.00 0.00 0.00 0.00 0.00 0.00 0.00 0.00 0.00 0.00 0.00 0.00 0.00 0.00 0.00 0.00 0.00 0.00 0.00 0.00 0.00 0.00 0.00 0.00 0.00 0.00 0.00 0.00 0.00 0.00 0.00 0.00 0.00 0.00 0.00 0.00 0.00 0.00 0.00 0.00 0.00
0.00 0.00 0.00 0.00 0.00 0.00 0.00 0.00 0.00 0.00 0.00 0.00 0.00 0.00 0.00 0.00 0.00 0.00 0.00 0.00 0.00 0.00 0.00 0.00 0.00 0.00 0.00 0.00 0.00 0.00 0.00 0.00 0.00 0.00 0.00 0.00 0.00 0.00 0.00 0.00 0.00 0.00 0.00 0.00 0.00 0.00 0.00 0.00 0.00
0.00 0.00 0.00 0.00 0.00 0.00 0.00 0.00 0.00 0.00 0.00 0.00 0.00 0.00 0.00 0.00 0.00 0.00 0.00 0.00 0.00 0.00 0.00 0.00 0.00 0.00 0.00 0.00 0.00 0.00 0.00 0.00 0.00 0.00 0.00 0.00 0.00 0.00 0.00 0.00 0.00 0.00 0.00 0.00 0.00 0.00 0.00 0.00 0.00
0.00 0.00 0.00 0.00 0.00 0.00 0.00 0.00 0.00 0.00 0.00 0.00 0.00 0.00 0.00 0.00 0.00 0.00 0.00 0.00 0.01 0.00 0.00 0.00 0.00 0.00 0.00 0.00 0.00 0.00 0.00 0.00 0.00 0.00 0.00 0.00 0.00 0.00 0.00 0.00 0.00 0.00 0.00 0.00 0.00 0.00 0.00 0.00 0.00
0.00 0.00 0.00 0.00 0.00 0.00 0.00 0.00 0.00 0.00 0.00 0.00 0.00 0.00 0.00 0.00 0.00 0.00 0.00 0.00 0.00 0.00 0.00 0.00 0.00 0.00 0.00 0.00 0.00 0.00 0.00 0.00 0.00 0.00 0.00 0.00 0.00 0.00 0.00 0.00 0.00 0.00 0.00 0.00 0.00 0.00 0.00 0.00 0.00
0.00 0.00 0.00 0.00 0.00 0.00 0.00 0.00 0.00 0.00 0.00 0.00 0.00 0.00 0.00 0.00 0.00 0.00 0.00 0.00 0.00 0.00 0.01 0.01 0.00 0.00 0.00 0.00 0.00 0.00 0.00 0.00 0.00 0.00 0.00 0.00 0.00 0.00 0.00 0.00 0.00 0.00 0.00 0.00 0.00 0.00 0.01 0.02 0.02
0.00 0.00 0.00 0.00 0.00 0.00 0.00 0.00 0.00 0.00 0.00 0.00 0.00 0.00 0.00 0.00 0.00 0.00 0.00 0.00 0.00 0.01 0.03 0.04 0.00 0.00 0.00 0.00 0.00 0.00 0.00 0.00 0.00 0.00 0.00 0.00 0.00 0.00 0.00 0.01 0.00 0.00 0.00 0.01 0.01 0.01 0.01 0.03 0.03
0.00 0.00 0.00 0.00 0.00 0.00 0.00 0.00 0.00 0.00 0.00 0.00 0.00 0.00 0.00 0.00 0.00 0.00 0.00 0.00 0.00 0.01 0.06 0.06 0.01 0.00 0.00 0.00 0.00 0.00 0.00 0.00 0.00 0.00 0.00 0.00 0.00 0.01 0.03 0.06 0.07 0.06 0.03 0.02 0.01 0.02 0.02 0.02 0.01
0.00 0.00 0.00 0.00 0.00 0.00 0.00 0.00 0.00 0.00 0.00 0.00 0.00 0.00 0.00 0.00 0.00 0.00 0.00 0.00 0.01 0.03 0.05 0.11 0.01 0.00 0.00 0.00 0.00 0.00 0.01 0.00 0.00 0.00 0.00 0.00 0.02 0.04 0.04 0.11 0.09 0.12 0.15 0.13 0.03 0.02 0.03 0.02 0.02
0.00 0.00 0.00 0.00 0.00 0.00 0.00 0.00 0.00 0.00 0.00 0.00 0.00 0.00 0.00 0.00 0.00 0.00 0.00 0.00 0.03 0.12 0.14 0.11 0.12 0.14 0.00 0.00 0.01 0.00 0.01 0.00 0.01 0.01 0.01 0.04 0.08 0.02 0.02 0.03 0.10 0.05 0.04 0.01 0.01 0.03 0.02 0.02 0.01
0.00 0.00 0.00 0.00 0.00 0.00 0.00 0.00 0.00 0.00 0.00 0.00 0.00 0.00 0.00 0.00 0.00 0.00 0.00 0.00 0.03 0.02 0.13 0.16 0.26 0.15 0.01 0.00 0.00 0.00 0.00 0.01 0.02 0.03 0.02 0.03 0.03 0.01 0.02 0.06 0.01 0.00 0.00 0.01 0.02 0.02 0.00 0.00 0.00
0.00 0.00 0.00 0.00 0.00 0.00 0.00 0.00 0.00 0.00 0.00 0.00 0.00 0.00 0.00 0.00 0.00 0.00 0.00 0.00 0.00 0.04 0.06 0.10 0.18 0.13 0.01 0.00 0.00 0.00 0.01 0.04 0.03 0.01 0.01 0.01 0.00 0.01 0.00 0.05 0.00 0.00 0.00 0.00 0.00 0.00 0.00 0.00 0.01
0.00 0.00 0.00 0.00 0.00 0.00 0.00 0.00 0.00 0.00 0.00 0.00 0.00 0.00 0.00 0.00 0.00 0.00 0.00 0.00 0.00 0.01 0.06 0.09 0.05 0.04 0.00 0.00 0.00 0.02 0.03 0.02 0.02 0.02 0.01 0.00 0.00 0.04 0.00 0.00 0.00 0.00 0.00 0.00 0.00 0.00 0.00 0.00 0.02
0.00 0.00 0.00 0.00 0.00 0.00 0.00 0.00 0.00 0.00 0.00 0.00 0.00 0.00 0.00 0.00 0.00 0.00 0.00 0.00 0.00 0.00 0.00 0.03 0.01 0.01 0.00 0.00 0.01 0.01 0.01 0.05 0.06 0.06 0.02 0.02 0.02 0.05 0.01 0.00 0.00 0.00 0.00 0.00 0.00 0.00 0.00 0.00 0.03
0.00 0.00 0.00 0.00 0.00 0.00 0.00 0.00 0.00 0.00 0.00 0.00 0.00 0.00 0.00 0.00 0.00 0.00 0.00 0.00 0.00 0.00 0.00 0.01 0.00 0.00 0.00 0.01 0.01 0.01 0.02 0.04 0.04 0.03 0.03 0.06 0.05 0.06 0.00 0.00 0.00 0.00 0.00 0.00 0.00 0.00 0.00 0.00 0.00
0.00 0.00 0.00 0.00 0.00 0.00 0.00 0.00 0.00 0.00 0.00 0.00 0.00 0.00 0.00 0.00 0.00 0.00 0.00 0.00 0.00 0.00 0.00 0.01 0.00 0.00 0.00 0.01 0.01 0.01 0.01 0.01 0.04 0.08 0.14 0.10 0.07 0.04 0.02 0.00 0.00 0.00 0.00 0.00 0.00 0.00 0.00 0.00 0.00
0.00 0.00 0.01 0.01 0.00 0.00 0.00 0.00 0.00 0.00 0.00 0.00 0.00 0.00 0.00 0.00 0.00 0.00 0.00 0.00 0.00 0.00 0.00 0.02 0.00 0.00 0.01 0.01 0.01 0.02 0.02 0.03 0.05 0.03 0.02 0.01 0.02 0.03 0.05 0.03 0.02 0.01 0.01 0.00 0.00 0.00 0.00 0.00 0.00
0.00 0.00 0.04 0.02 0.01 0.00 0.00 0.00 0.00 0.00 0.00 0.00 0.00 0.00 0.00 0.00 0.00 0.00 0.00 0.00 0.00 0.00 0.00 0.00 0.01 0.00 0.00 0.00 0.01 0.02 0.01 0.02 0.01 0.01 0.00 0.00 0.00 0.01 0.00 0.01 0.01 0.01 0.00 0.00 0.00 0.00 0.00 0.00 0.00
0.00 0.00 0.00 0.03 0.02 0.01 0.00 0.00 0.00 0.00 0.00 0.00 0.00 0.00 0.00 0.00 0.00 0.00 0.00 0.00 0.00 0.00 0.00 0.00 0.00 0.00 0.00 0.00 0.00 0.00 0.00 0.00 0.00 0.00 0.00 0.00 0.00 0.00 0.00 0.00 0.00 0.00 0.00 0.00 0.00 0.00 0.00 0.00 0.00
0.00 0.00 0.02 0.04 0.04 0.02 0.00 0.00 0.00 0.00 0.00 0.00 0.00 0.00 0.00 0.00 0.00 0.00 0.00 0.00 0.00 0.00 0.00 0.01 0.00 0.00 0.00 0.00 0.00 0.00 0.00 0.00 0.00 0.00 0.00 0.00 0.00 0.00 0.00 0.00 0.00 0.00 0.00 0.00 0.00 0.00 0.00 0.00 0.00
0.01 0.00 0.00 0.02 0.01 0.03 0.02 0.00 0.00 0.00 0.00 0.00 0.00 0.00 0.00 0.00 0.00 0.00 0.00 0.00 0.00 0.00 0.01 0.01 0.00 0.00 0.00 0.00 0.00 0.00 0.00 0.00 0.00 0.00 0.00 0.00 0.00 0.00 0.00 0.00 0.00 0.00 0.00 0.00 0.00 0.00 0.00 0.00 0.00
0.02 0.00 0.01 0.02 0.00 0.01 0.04 0.01 0.00 0.00 0.00 0.00 0.00 0.00 0.00 0.00 0.00 0.00 0.00 0.00 0.00 0.00 0.01 0.01 0.00 0.00 0.00 0.00 0.00 0.00 0.00 0.00 0.00 0.00 0.00 0.00 0.00 0.00 0.00 0.00 0.00 0.00 0.00 0.00 0.00 0.00 0.00 0.00 0.00
MSLP
1007.42 1006.89 1006.38 1005.07 1004.17 1001.78 999.42 997.44 995.65 993.30 992.44 992.48 993.35 993.87 994.29 995.05 997.92 1002.17 1003.12 999.55 1000.91 1002.29 1002.60 1003.61 1004.53 1005.06 1005.80 1006.56 1007.21 1007.88 1008.43 1008.91 1009.34 1009.75 1010.17 1010.55 1010.85 1011.17 1011.44 1011.73 1011.88 1012.06 1012.21 1012.39 1012.62 1012.82 1013.00 1013.16 1013.36
1006.68 1005.67 1004.93 1003.95 1002.40 1000.29 998.10 996.72 995.03 993.36 992.48 992.86 994.01 994.83 995.05 995.86 997.79 1000.05 1000.75 1000.73 1001.38 1002.96 1003.18 1003.84 1004.80 1005.35 1005.87 1006.63 1007.33 1007.98 1008.51 1008.96 1009.40 1009.87 1010.27 1010.72 1011.19 1011.56 1011.81 1012.00 1012.14 1012.28 1012.41 1012.60 1012.82 1012.98 1013.16 1013.34 1013.51
1007.01 1005.55 1004.48 1002.95 1001.22 999.12 997.58 995.85 994.46 993.52 993.01 993.46 994.56 995.21 995.13 995.39 996.30 997.81 998.61 1000.25 1002.04 1003.01 1003.09 1004.28 1005.08 1005.64 1006.15 1006.82 1007.45 1008.15 1008.68 1009.15 1009.54 1010.00 1010.42 1010.84 1011.25 1011.61 1011.93 1012.16 1012.32 1012.45 1012.56 1012.72 1012.92 1013.11 1013.24 1013.43 1013.66
1005.47 1004.71 1004.04 1001.63 999.53 998.33 997.51 995.97 994.23 993.49 992.73 993.65 994.66 995.24 995.48 995.73 997.07 997.95 998.62 1000.40 1001.91 1002.83 1003.43 1004.76 1005.38 1005.74 1006.38 1007.02 1007.52 1008.14 1008.83 1009.25 1009.75 1010.00 1010.28 1010.73 1011.11 1011.44 1011.85 1012.10 1012.32 1012.49 1012.70 1012.90 1013.10 1013.27 1013.44 1013.60 1013.82
1004.80 1003.50 1002.22 1000.59 999.20 998.15 996.59 995.54 994.59 993.77 993.61 993.74 994.58 995.41 995.74 996.06 997.35 998.44 998.73 1000.03 1001.42 1002.83 1004.00 1004.96 1005.73 1006.03 1006.56 1007.18 1007.66 1008.22 1008.81 1009.26 1009.78 1010.22 1010.48 1010.79 1011.20 1011.64 1011.85 1012.06 1012.36 1012.64 1012.92 1013.13 1013.31 1013.58 1013.75 1013.87 1014.03
1003.97 1003.10 1001.36 999.63 998.28 997.28 996.51 995.59 994.59 993.78 993.82 994.24 994.64 995.26 996.02 996.61 997.35 998.37 999.04 1000.18 1001.34 1002.64 1004.08 1005.05 1005.80 1006.18 1006.83 1007.28 1007.85 1008.35 1008.76 1009.25 1009.68 1010.05 1010.57 1010.94 1011.27 1011.57 1011.96 1012.27 1012.47 1012.65 1012.88 1013.11 1013.40 1013.64 1013.76 1013.93 1014.08
1003.16 1001.95 1000.49 999.17 997.52 996.03 995.01 994.67 994.37 994.11 993.95 994.38 994.90 995.25 996.00 996.41 996.97 998.11 999.07 1000.05 1000.99 1002.44 1003.85 1004.96 1005.64 1006.29 1006.80 1007.27 1007.85 1008.37 1008.78 1009.32 1009.78 1010.26 1010.63 1011.09 1011.35 1011.71 1012.06 1012.38 1012.61 1012.90 1013.06 1013.20 1013.42 1013.67 1013.86 1013.94 1014.07
1002.78 1001.85 1000.01 998.53 997.19 995.52 994.63 993.62 993.14 993.33 993.43 994.33 994.90 995.13 995.99 996.30 996.61 997.71 998.67 999.52 1000.52 1001.95 1003.46 1004.46 1005.33 1006.06 1006.63 1007.30 1007.92 1008.47 1008.96 1009.42 1009.90 1010.32 1010.84 1011.22 1011.59 1011.79 1012.16 1012.50 1012.72 1012.90 1013.18 1013.40 1013.61 1013.76 1013.93 1014.07 1014.13
1002.39 1001.37 999.09 997.93 996.75 995.41 994.62 993.83 993.17 993.30 994.03 994.72 995.15 995.15 995.74 996.18 996.72 997.42 998.44 999.05 1000.02 1001.35 1002.78 1003.79 1004.64 1005.37 1005.71 1006.62 1007.77 1008.33 1008.95 1009.54 1010.01 1010.51 1010.84 1011.29 1011.55 1011.93 1012.19 1012.34 1012.58 1012.89 1013.14 1013.46 1013.68 1013.85 1013.93 1013.99 1014.05
1001.54 999.98 998.35 997.99 996.73 995.56 994.73 994.00 993.34 993.76 994.78 995.41 995.59 995.71 995.80 996.54 997.08 997.13 997.74 998.41 999.15 1000.53 1001.80 1002.64 1003.68 1004.38 1004.89 1005.46 1006.79 1007.68 1008.41 1009.03 1009.61 1010.14 1010.80 1011.00 1011.19 1011.40 1011.40 1011.82 1012.46 1012.87 1013.03 1013.29 1013.60 1013.77 1013.91 1014.02 1013.77
1000.91 998.22 998.48 997.44 996.81 995.70 994.73 993.99 993.53 993.85 994.56 995.46 995.60 995.59 996.25 996.57 997.36 997.22 997.17 997.54 997.53 998.64 1000.88 1001.25 1002.99 1003.98 1004.38 1005.02 1006.44 1006.82 1007.37 1008.16 1008.99 1009.61 1010.29 1010.63 1010.61 1010.83 1011.16 1011.62 1012.10 1012.62 1013.05 1013.11 1013.28 1013.52 1013.63 1013.52 1013.40
999.78 998.64 998.39 997.57 996.64 995.95 995.20 994.88 994.04 993.96 994.76 995.22 995.73 995.75 996.24 996.51 997.02 997.45 997.17 997.17 998.27 1000.86 1000.03 1001.63 1001.70 1003.24 1004.04 1005.13 1006.13 1006.64 1007.16 1007.37 1008.13 1008.79 1009.61 1010.13 1010.28 1010.46 1010.64 1010.86 1011.35 1011.82 1012.00 1012.25 1012.32 1012.41 1012.42 1012.64 1012.65
998.21 998.04 997.70 997.34 996.94 996.29 995.99 995.08 994.77 994.45 994.74 995.46 995.48 995.55 996.03 996.36 997.12 997.33 997.38 997.01 997.32 999.21 1001.14 1002.13 1002.46 1002.14 1003.45 1004.58 1005.36 1006.00 1006.72 1007.33 1007.34 1007.86 1008.81 1009.58 1009.96 1010.00 1010.44 1010.50 1010.55 1011.22 1011.04 1011.48 1011.60 1011.67 1012.08 1012.16 1012.15
998.13 997.56 996.79 996.48 996.03 995.90 995.58 995.31 995.04 994.81 995.17 995.21 995.77 995.94 996.25 996.82 997.43 997.54 997.37 996.79 997.53 999.06 1002.12 1002.21 1001.99 1002.32 1003.28 1004.18 1004.42 1005.03 1005.94 1006.72 1006.99 1007.24 1007.98 1008.81 1009.27 1009.67 1010.24 1010.45 1010.56 1010.60 1010.54 1011.04 1011.43 1011.74 1012.06 1012.54 1012.54
997.58 996.99 995.92 994.97 995.26 994.96 995.84 994.91 993.59 994.66 995.29 995.25 995.25 995.92 996.41 997.15 997.23 997.31 997.01 997.05 998.98 999.77 1000.52 1003.55 1003.62 1003.73 1004.60 1004.85 1004.66 1004.16 1005.19 1006.29 1006.58 1006.95 1007.46 1008.26 1008.86 1009.33 1010.03 1010.37 1010.60 1010.93 1011.15 1011.43 1011.94 1012.25 1012.64 1013.37 1013.57
997.44 996.58 995.24 993.74 994.42 994.17 995.38 992.27 993.44 994.57 994.67 994.74 995.16 995.68 996.19 996.54 996.86 996.60 996.42 997.15 998.42 1000.63 1003.09 1003.56 1004.62 1004.64 1004.98 1004.90 1005.54 1004.68 1005.27 1005.80 1006.28 1006.69 1007.28 1008.01 1008.55 1009.23 1010.03 1010.93 1011.32 1011.55 1011.75 1012.31 1012.93 1013.34 1013.71 1013.97 1014.00
997.25 995.04 993.88 994.19 993.48 993.80 993.55 991.21 993.51 993.53 993.71 994.23 994.69 995.25 995.68 996.11 996.35 996.10 996.29 996.90 998.88 1001.16 1002.90 1002.56 1003.33 1003.88 1004.67 1005.01 1005.06 1005.57 1005.90 1005.88 1006.50 1006.58 1007.20 1008.14 1008.52 1009.23 1010.00 1011.00 1011.70 1012.19 1012.53 1013.06 1013.40 1013.57 1013.91 1014.29 1014.18
995.22 994.67 993.82 993.22 993.11 993.11 992.77 991.50 992.83 992.87 992.89 993.07 993.91 994.61 995.13 995.52 995.69 995.77 996.06 997.16 998.66 1000.37 1001.27 1004.26 1002.65 1003.49 1004.81 1004.79 1005.04 1005.40 1006.17 1006.39 1006.52 1007.13 1007.50 1008.04 1008.91 1009.54 1010.16 1011.15 1011.92 1012.19 1012.70 1013.22 1013.38 1013.60 1014.11 1014.53 1014.59
995.75 995.00 993.72 992.93 992.61 992.09 991.46 990.81 991.44 992.11 992.13 992.06 992.72 993.56 994.26 994.79 995.02 995.28 995.72 996.68 998.76 999.97 1001.14 1003.38 1002.92 1003.83 1004.32 1004.44 1005.14 1005.75 1006.65 1006.54 1006.94 1007.46 1007.93 1008.58 1009.20 1009.77 1010.36 1011.28 1011.85 1012.27 1012.74 1013.19 1013.59 1014.02 1014.42 1014.65 1014.73
996.34 995.09 993.67 992.55 991.47 991.15 990.77 989.79 990.06 990.93 991.15 991.44 991.85 992.50 993.14 993.99 994.28 994.56 995.29 996.24 998.20 1000.08 999.72 1001.04 1004.03 1003.56 1004.19 1004.41 1005.40 1006.12 1006.70 1006.68 1006.95 1007.94 1008.75 1009.11 1009.78 1010.15 1010.56 1011.52 1012.09 1012.47 1013.03 1013.51 1013.90 1014.04 1014.24 1014.37 1014.50
995.37 994.88 994.20 992.86 991.57 990.19 989.44 989.36 989.26 989.58 990.33 990.75 990.96 991.62 992.15 992.73 993.33 993.85 994.86 995.69 998.08 999.52 1001.04 1000.23 1002.63 1001.73 1003.80 1004.63 1005.78 1006.15 1006.52 1007.00 1007.37 1008.52 1009.21 1009.93 1010.20 1010.68 1011.17 1011.65 1012.26 1012.83 1013.05 1013.45 1013.84 1014.10 1014.12 1014.44 1014.52
995.54 994.99 994.20 993.57 992.41 989.85 989.43 988.26 988.45 988.67 989.70 990.51 990.61 990.64 990.90 991.61 992.41 993.12 994.28 995.53 996.48 997.44 997.86 999.31 1000.08 1002.44 1003.76 1004.73 1005.41 1005.84 1006.32 1006.58 1007.73 1008.83 1009.47 1009.90 1010.36 1011.07 1011.76 1012.16 1012.49 1012.97 1013.15 1013.33 1013.55 1013.71 1014.00 1014.27 1014.35
995.55 995.32 994.28 993.53 992.66 991.87 989.86 988.93 987.78 988.01 988.88 989.60 989.47 989.36 990.34 990.80 991.56 992.39 993.34 995.08 996.27 997.42 998.77 1000.39 1001.74 1003.05 1004.07 1004.81 1005.03 1005.06 1005.49 1006.95 1008.12 1009.21 1009.80 1010.49 1011.23 1011.60 1012.07 1012.45 1012.80 1013.07 1013.10 1013.41 1013.67 1013.94 1014.31 1014.15 1014.44
996.23 996.02 994.88 994.01 992.99 990.82 990.42 989.26 987.52 987.04 987.52 988.25 988.57 989.03 989.60 990.13 990.92 992.09 993.19 994.47 995.85 997.13 998.79 1000.38 1001.87 1003.05 1003.69 1004.05 1004.19 1004.77 1005.81 1007.12 1008.30 1009.14 1009.92 1010.82 1011.35 1012.00 1012.22 1012.82 1013.51 1013.48 1013.59 1013.83 1014.05 1014.20 1014.37 1014.67 1014.87
996.24 995.76 995.22 993.61 991.86 990.27 990.55 989.23 987.72 986.88 986.84 986.80 987.51 988.04 989.28 990.12 990.82 991.83 993.06 994.35 995.53 996.78 998.39 1000.16 1001.71 1002.83 1003.51 1003.99 1004.60 1005.18 1006.20 1007.45 1008.52 1009.20 1009.96 1010.73 1011.29 1011.59 1011.30 1011.42 1012.94 1013.63 1013.89 1013.88 1014.35 1014.47 1014.49 1014.75 1014.86
995.29 995.82 995.21 993.30 992.22 991.58 990.48 988.22 987.39 986.70 986.37 986.44 986.86 987.54 988.74 989.90 990.64 991.66 992.90 994.39 995.71 997.24 999.02 1000.30 1001.95 1003.83 1004.38 1004.80 1005.41 1006.20 1007.07 1008.22 1009.16 1009.66 1010.32 1011.10 1011.87 1012.22 1011.86 1012.48 1012.88 1013.02 1013.66 1013.76 1014.21 1014.42 1014.48 1014.59 1014.74
994.43 994.29 995.19 994.97 993.44 992.23 990.93 989.25 988.40 986.85 985.81 985.83 985.62 986.51 988.08 989.67 990.94 992.02 993.32 994.79 997.02 998.78 1000.24 1001.42 1003.33 1004.93 1005.38 1005.57 1006.42 1007.10 1007.84 1008.75 1009.52 1010.45 1011.08 1011.75 1012.44 1012.73 1012.66 1012.74 1012.98 1012.91 1013.37 1014.01 1014.32 1014.43 1014.43 1014.19 1014.53
994.10 993.56 994.56 994.70 995.34 993.47 992.05 988.65 986.80 986.08 985.29 985.29 984.99 985.94 987.55 989.26 991.01 992.46 994.90 996.53 998.06 999.81 1001.21 1002.65 1004.20 1005.42 1006.12 1006.49 1007.04 1007.70 1008.45 1009.45 1010.27 1010.85 1011.36 1011.83 1012.32 1012.62 1013.00 1012.88 1012.92 1013.05 1013.65 1014.14 1014.56 1014.53 1014.44 1014.54 1014.45
994.68 993.57 993.84 994.92 995.83 994.94 992.87 989.38 986.82 985.79 985.79 985.55 985.35 986.14 987.70 989.53 991.98 994.20 996.03 998.00 999.52 1000.63 1001.81 1003.33 1004.80 1005.74 1006.41 1007.11 1007.83 1008.49 1009.32 1010.18 1010.70 1011.16 1011.80 1012.28 1012.47 1012.64 1013.01 1013.31 1013.27 1013.58 1014.07 1014.43 1014.61 1014.53 1014.49 1014.51 1014.52
996.46 994.73 993.82 994.64 995.28 995.53 994.74 990.83 987.72 986.56 986.32 986.58 986.91 987.67 989.36 991.36 993.72 995.80 997.21 998.73 999.99 1001.50 1002.67 1003.97 1005.22 1005.97 1006.63 1007.59 1008.44 1009.04 1009.65 1010.31 1010.97 1011.66 1012.38 1012.65 1013.03 1013.19 1013.27 1013.48 1013.69 1014.16 1014.47 1014.55 1014.70 1014.66 1014.95 1015.15 1014.96
Thickness
5809 5815 5820 5818 5785 5801 5805 5831 5869 5881 5892 5911 5905 5892 5890 5892 5842 5793 5814 5897 5895 5883 5882 5874 5868 5863 5857 5851 5846 5841 5837 5834 5830 5827 5823 5819 5816 5813 5810 5808 5807 5805 5803 5801 5799 5797 5795 5793 5790
5808 5817 5817 5805 5780 5779 5809 5850 5853 5884 5907 5904 5890 5889 5883 5871 5868 5856 5858 5883 5889 5876 5875 5870 5864 5860 5855 5849 5843 5837 5834 5831 5828 5825 5821 5817 5813 5809 5807 5806 5804 5803 5801 5799 5797 5795 5793 5791 5788
5799 5809 5790 5785 5784 5787 5807 5851 5868 5891 5904 5885 5872 5889 5884 5878 5879 5879 5896 5891 5880 5872 5873 5864 5859 5855 5851 5846 5840 5834 5830 5827 5825 5822 5819 5815 5811 5808 5805 5803 5801 5799 5798 5797 5795 5793 5791 5789 5786
5796 5794 5789 5775 5788 5814 5821 5848 5872 5882 5899 5887 5874 5860 5885 5898 5879 5888 5893 5887 5875 5870 5867 5857 5854 5852 5846 5841 5838 5833 5827 5824 5821 5820 5818 5814 5811 5808 5804 5801 5799 5797 5795 5793 5791 5789 5788 5785 5783
5793 5788 5768 5774 5790 5812 5838 5856 5870 5865 5872 5876 5868 5854 5862 5884 5886 5886 5888 5885 5872 5865 5859 5853 5847 5846 5842 5837 5833 5829 5824 5822 5818 5815 5813 5811 5808 5803 5802 5800 5797 5794 5791 5788 5786 5784 5782 5780 5779
5770 5778 5759 5769 5795 5817 5832 5848 5858 5859 5864 5862 5856 5857 5861 5875 5877 5878 5880 5873 5870 5863 5855 5847 5843 5841 5836 5833 5829 5825 5823 5819 5816 5813 5809 5806 5804 5802 5798 5795 5793 5792 5789 5786 5783 5780 5779 5777 5775
5764 5766 5762 5778 5795 5812 5833 5855 5845 5850 5853 5848 5863 5839 5861 5864 5870 5881 5873 5871 5867 5861 5851 5844 5839 5835 5832 5829 5826 5822 5819 5815 5812 5808 5805 5801 5799 5796 5794 5791 5789 5785 5783 5781 5779 5776 5774 5773 5772
5767 5763 5763 5782 5787 5805 5841 5855 5865 5854 5846 5869 5865 5830 5832 5864 5867 5866 5872 5866 5863 5858 5847 5843 5837 5832 5829 5825 5821 5817 5813 5809 5805 5803 5798 5795 5792 5791 5788 5785 5783 5780 5777 5774 5772 5771 5769 5767 5767
5771 5745 5756 5776 5790 5812 5838 5834 5859 5863 5840 5845 5853 5850 5852 5866 5865 5849 5862 5857 5855 5853 5847 5843 5837 5832 5832 5825 5816 5812 5807 5803 5799 5795 5793 5790 5787 5784 5782 5781 5779 5777 5774 5770 5767 5765 5764 5763 5762
5751 5750 5766 5790 5800 5805 5823 5828 5842 5830 5816 5822 5834 5844 5857 5851 5850 5845 5851 5846 5849 5848 5846 5845 5837 5834 5832 5827 5818 5811 5805 5800 5795 5792 5787 5786 5785 5783 5784 5780 5775 5771 5770 5767 5763 5761 5759 5757 5759
5750 5761 5777 5787 5798 5810 5814 5818 5836 5822 5801 5813 5818 5826 5844 5838 5835 5845 5850 5852 5859 5864 5843 5848 5836 5830 5829 5826 5814 5810 5805 5799 5793 5789 5784 5782 5783 5781 5779 5776 5772 5767 5762 5761 5760 5757 5755 5755 5755
5741 5766 5769 5780 5793 5796 5798 5811 5811 5818 5813 5824 5828 5831 5836 5832 5833 5839 5846 5856 5845 5812 5839 5833 5834 5823 5823 5820 5811 5809 5804 5800 5794 5788 5782 5779 5779 5779 5777 5775 5770 5766 5764 5760 5760 5759 5759 5756 5755
5749 5757 5765 5775 5780 5787 5793 5795 5799 5805 5820 5821 5826 5827 5826 5828 5830 5838 5846 5858 5856 5843 5828 5807 5827 5816 5817 5814 5810 5807 5803 5797 5794 5789 5782 5776 5775 5776 5772 5770 5768 5764 5762 5759 5757 5757 5754 5753 5750
5746 5748 5759 5769 5777 5783 5779 5785 5792 5805 5812 5810 5810 5811 5815 5819 5822 5828 5841 5853 5850 5843 5820 5797 5816 5812 5811 5811 5808 5804 5802 5796 5792 5788 5782 5776 5772 5771 5766 5763 5760 5758 5759 5753 5751 5747 5745 5739 5738
5739 5729 5750 5769 5774 5776 5775 5766 5789 5803 5799 5798 5801 5807 5808 5810 5819 5824 5840 5843 5828 5824 5816 5777 5785 5794 5796 5799 5803 5804 5799 5792 5789 5786 5782 5774 5769 5764 5761 5756 5753 5751 5749 5745 5739 5736 5731 5725 5722
5711 5722 5720 5770 5769 5778 5759 5766 5792 5794 5790 5790 5794 5799 5802 5806 5817 5830 5842 5839 5830 5804 5788 5789 5779 5783 5792 5796 5796 5796 5794 5790 5786 5782 5776 5770 5766 5758 5754 5744 5741 5740 5737 5732 5726 5720 5715 5711 5709
5697 5706 5724 5736 5768 5760 5754 5775 5780 5791 5788 5784 5787 5794 5798 5801 5812 5828 5837 5835 5818 5795 5789 5751 5776 5786 5791 5792 5792 5786 5784 5784 5779 5775 5771 5763 5761 5754 5747 5740 5734 5728 5726 5719 5715 5714 5708 5702 5702
5697 5702 5717 5723 5747 5746 5741 5763 5768 5781 5783 5785 5788 5789 5794 5797 5807 5823 5830 5828 5816 5803 5785 5755 5766 5772 5778 5784 5785 5783 5777 5775 5772 5766 5764 5759 5751 5745 5740 5733 5726 5723 5718 5711 5709 5705 5699 5693 5690
5696 5692 5700 5723 5740 5738 5740 5758 5765 5774 5781 5784 5785 5789 5791 5796 5809 5821 5826 5825 5805 5795 5780 5748 5764 5773 5779 5782 5777 5770 5764 5766 5760 5758 5754 5747 5742 5737 5733 5724 5720 5715 5710 5705 5700 5694 5688 5685 5682
5664 5671 5687 5717 5740 5736 5738 5749 5766 5767 5776 5783 5785 5787 5792 5794 5805 5815 5817 5820 5806 5781 5789 5780 5756 5768 5772 5777 5772 5764 5760 5760 5757 5749 5741 5736 5731 5725 5723 5714 5708 5704 5698 5693 5690 5687 5682 5680 5677
5654 5656 5673 5689 5723 5744 5743 5731 5748 5762 5774 5782 5789 5792 5795 5797 5801 5810 5808 5814 5800 5790 5746 5742 5762 5770 5771 5771 5765 5763 5759 5751 5743 5735 5730 5724 5720 5714 5710 5705 5700 5694 5691 5686 5683 5680 5677 5670 5671
5617 5658 5669 5675 5685 5694 5738 5708 5738 5754 5751 5760 5774 5786 5797 5800 5805 5810 5807 5803 5806 5804 5806 5789 5780 5771 5769 5767 5760 5755 5747 5738 5733 5726 5724 5719 5713 5706 5698 5693 5688 5684 5682 5679 5677 5676 5672 5667 5662
5610 5642 5651 5665 5669 5679 5698 5704 5731 5750 5733 5750 5774 5792 5791 5799 5802 5806 5810 5801 5801 5797 5790 5779 5772 5766 5761 5756 5755 5753 5744 5736 5726 5718 5714 5707 5700 5694 5687 5680 5676 5675 5676 5672 5670 5667 5663 5663 5656
5613 5607 5628 5645 5656 5646 5676 5693 5714 5737 5741 5756 5776 5783 5790 5795 5798 5798 5803 5802 5796 5795 5784 5777 5769 5761 5757 5754 5754 5750 5741 5730 5718 5713 5704 5697 5692 5685 5679 5671 5661 5662 5664 5662 5660 5658 5655 5651 5647
5589 5590 5578 5602 5620 5633 5674 5676 5703 5742 5756 5769 5773 5783 5782 5786 5788 5789 5788 5789 5789 5789 5781 5775 5767 5755 5752 5751 5747 5742 5733 5722 5711 5706 5699 5692 5686 5681 5680 5676 5663 5657 5655 5656 5650 5647 5648 5644 5641
5589 5581 5565 5584 5605 5623 5662 5658 5692 5745 5765 5773 5774 5783 5781 5779 5784 5784 5783 5780 5779 5773 5769 5769 5754 5740 5738 5737 5731 5726 5720 5710 5702 5698 5691 5682 5674 5670 5670 5661 5655 5656 5651 5651 5645 5642 5641 5641 5636
5593 5586 5603 5594 5622 5628 5642 5668 5702 5736 5752 5763 5772 5776 5772 5770 5771 5772 5774 5772 5755 5751 5752 5746 5735 5724 5722 5723 5718 5713 5708 5700 5694 5684 5679 5671 5663 5659 5657 5652 5645 5648 5647 5642 5637 5635 5635 5637 5631
5599 5617 5587 5590 5568 5583 5602 5659 5679 5712 5739 5755 5766 5767 5772 5770 5765 5763 5746 5744 5742 5743 5734 5729 5721 5714 5709 5708 5706 5702 5696 5687 5680 5674 5668 5664 5659 5654 5647 5646 5645 5645 5639 5633 5628 5629 5628 5627 5626
5586 5597 5602 5593 5577 5568 5595 5628 5701 5720 5735 5749 5765 5766 5763 5759 5743 5739 5735 5726 5730 5725 5722 5715 5708 5705 5700 5697 5692 5688 5682 5675 5669 5664 5658 5653 5649 5647 5642 5639 5638 5634 5629 5625 5623 5624 5621 5620 5619
5561 5580 5602 5581 5573 5573 5570 5618 5702 5721 5739 5747 5752 5742 5733 5737 5730 5725 5722 5720 5718 5711 5707 5701 5697 5694 5693 5686 5680 5677 5673 5667 5660 5654 5648 5644 5638 5636 5634 5630 5628 5624 5621 5620 5617 5616 5612 5608 5607